This is the latest recevied weather packets stored in our database for station/object DH0GMA. If no packets are shown the sender has not sent any weather packets the latest 10 day(s).
| Time | Temp. | Humidity | Pressure | Rain* | Wind** | Luminosity | Snow |
|---|---|---|---|---|---|---|---|
| 1777516356 | 4.44° C | 59% | 1024.3 hPa | 0 mm | - | - | - |
| 1777515756 | 4.44° C | 59% | 1024.6 hPa | 0 mm | - | - | - |
| 1777515156 | 5° C | 59% | 1024.5 hPa | 0 mm | - | - | - |
| 1777514557 | 5° C | 58% | 1024.4 hPa | 0 mm | - | - | - |
| 1777513957 | 5° C | 57% | 1024.5 hPa | 0 mm | - | - | - |
| 1777513357 | 5.56° C | 57% | 1024.4 hPa | 0 mm | - | - | - |
| 1777512757 | 5.56° C | 55% | 1024.3 hPa | 0 mm | - | - | - |
| 1777512157 | 6.11° C | 55% | 1024.2 hPa | 0 mm | - | - | - |
| 1777511557 | 6.11° C | 54% | 1024.1 hPa | 0 mm | - | - | - |
| 1777510957 | 6.11° C | 53% | 1024.1 hPa | 0 mm | - | - | - |
| 1777510357 | 6.67° C | 53% | 1024 hPa | 0 mm | - | - | - |
| 1777509756 | 6.67° C | 52% | 1024 hPa | 0 mm | - | - | - |
| 1777509156 | 7.22° C | 50% | 1024 hPa | 0 mm | - | - | - |
| 1777508556 | 7.22° C | 50% | 1024.1 hPa | 0 mm | - | - | - |
| 1777507956 | 7.22° C | 49% | 1024 hPa | 0 mm | - | - | - |
| 1777507356 | 7.22° C | 49% | 1024 hPa | 0 mm | - | - | - |
| 1777506756 | 7.78° C | 48% | 1023.9 hPa | 0 mm | - | - | - |
| 1777506157 | 7.78° C | 48% | 1023.9 hPa | 0 mm | - | - | - |
| 1777505557 | 8.33° C | 47% | 1023.9 hPa | 0 mm | - | - | - |
| 1777504956 | 8.33° C | 46% | 1023.8 hPa | 0 mm | - | - | - |
| 1777504356 | 8.33° C | 46% | 1023.8 hPa | 0 mm | - | - | - |
| 1777503756 | 8.89° C | 46% | 1023.7 hPa | 0 mm | - | - | - |
| 1777503156 | 8.89° C | 46% | 1023.7 hPa | 0 mm | - | - | - |
| 1777502556 | 8.89° C | 45% | 1023.6 hPa | 0 mm | - | - | - |
| 1777501955 | 9.44° C | 45% | 1023.5 hPa | 0 mm | - | - | - |
* Rain latest hour (hover to see other rain measurements)
** Current wind speed in m/s (hover to see current wind gust speed)